Regional Weather Roundup
Issued by NWS

Home | Current Version | Previous Version | Text Only | Print | Product List | Glossary On
Versions: 1 2 3 4 5 6 7 8 9 10 11 12 13 14 15 16 17 18 19 20 21 22 23 24 25 26 27 28 29 30 31 32 33 34 35 36 37 38 39 40 41 42 43 44 45 46 47 48 49 50
863
ASUS44 KLIX 300407
RWRLA
LOUISIANA WEATHER ROUNDUP
NATIONAL WEATHER SERVICE NEW ORLEANS LA
1100 PM CDT SUN MAR 29 2015

NOTE: "FAIR" INDICATES FEW OR NO CLOUDS BELOW 12,000 FEET WITH NO
      SIGNIFICANT WEATHER AND/OR OBSTRUCTIONS TO VISIBILITY.
      SKY/WX - SKY CONDITION AND SIGNIFICANT WEATHER.
      TMP - AIR TEMPERATURE.    DP   - DEWPOINT TEMPERATURE.
      RH  - RELATIVE HUMIDITY.  PRES - PRESSURE.
      HX  - HEAT INDEX.         WCI  - WIND CHILL INDEX.

*  THESE STATIONS ARE NOT NWS OR FAA STATIONS AND ARE NOT UNDER
   NWS QUALITY CONTROL.

LAZ040-048-061>063-065-066-069-300500-
SOUTHEAST LOUISIANA

CITY           SKY/WX    TMP DP  RH WIND       PRES   REMARKS
N.O. AUDUBON     N/A     67  67 100 MISG        N/A
N.O. INTL ARPT PTCLDY    66  62  87 S6        30.22S
N.O. LAKEFRONT PTCLDY    67  62  84 S7        30.23S
SLIDELL        PTCLDY    65  63  93 S7        30.22S
BATON ROUGE    CLEAR     66  59  78 S7        30.20R
BOOTHVILLE     CLEAR     67  63  87 SE8       30.25S
BELLE CHASSE   CLEAR     62  60  93 CALM      30.22S
BOGALUSA*        N/A     65  60  84 S6        30.23R
GALLIANO*      CLEAR     68  64  88 MISG      30.23S
NEW ROADS*     MOCLDY    66  60  81 S6        30.20R
GONZALES*      FAIR      65  61  86 S3        30.21R
HAMMOND*       CLEAR     63  59  88 CALM      30.23S
HOUMA*         CLEAR     66  64  94 S3        30.22S
PORT FOURCHON* CLEAR     72  64  78 S5        30.26S

$$

LAZ041-044-053-054-300500-
SOUTHWEST LOUISIANA

CITY           SKY/WX    TMP DP  RH WIND       PRES   REMARKS
LAKE CHARLES   CLEAR     65  63  93 S5        30.17S
LAFAYETTE      CLEAR     67  63  87 S5        30.19S
PATTERSON      CLEAR     64  61  88 S6        30.22F
SALT POINT       N/A     65  63  93 SE5       30.19S
NEW IBERIA     PTCLDY    66  63  90 S7        30.20S
CHENAULT AIRPK CLEAR     61  60  97 S5        30.18S

$$

LAZ027-028-300500-
CENTRAL LOUISIANA

CITY           SKY/WX    TMP DP  RH WIND       PRES   REMARKS
FORT POLK      CLEAR     66  61  84 S10       30.13S
ALEXANDRIA INT CLEAR     66  59  78 S9        30.13S
ALEXANDRIA     CLEAR     67  59  75 SW10G18   30.15R

$$

LAZ001-002-300500-
NORTHWEST LOUISIANA

CITY           SKY/WX    TMP DP  RH WIND       PRES   REMARKS
SHREVEPORT     CLEAR     68  58  70 S7        30.11R
BARKSDALE AFB  CLEAR     69  58  67 S9        30.11R
DTN SHREVEPORT CLEAR     69  56  62 S8        30.11R

$$

LAZ014-016-300500-
NORTHEAST LOUISIANA

CITY           SKY/WX    TMP DP  RH WIND       PRES   REMARKS
MONROE         CLEAR     68  58  70 SW9       30.14R
TALLULAH       CLEAR     70  56  61 SW6       30.15R

$$




USA.gov is the U.S. government's official web portal to all federal, state and local government web resources and services.